Temp
54 54 54 54 54 54 54 54 54 53 53 54 54 55 55 54 53 43 40 41 41 37 40 48 53 50 50 46 45 51 52 51 52 48 46 45 47 48 46 47 46 49 46 47 44 43 46 58 63 57 58 59 63 62
54 54 54 54 54 54 54 54 53 53 53 53 54 54 54 54 53 47 38 42 42 39 43 46 53 58 57 56 50 48 48 48 51 50 46 45 45 44 42 44 49 47 49 48 50 50 54 57 57 60 59 60 60 62
54 54 54 54 54 54 54 54 53 53 53 53 53 54 54 53 53 49 37 37 38 37 41 43 49 53 52 54 55 49 50 52 51 52 47 45 45 44 42 44 46 50 51 48 51 54 57 57 59 61 62 62 63 64
53 53 53 53 53 53 53 54 54 53 53 53 53 53 53 53 52 51 38 37 38 37 35 44 55 51 57 53 55 54 54 52 51 50 47 44 46 48 44 47 47 51 52 50 50 54 56 59 59 59 62 64 63 64
53 53 53 53 53 53 53 53 53 53 53 53 53 53 53 52 51 44 39 39 40 40 36 39 47 50 54 54 56 52 51 49 50 50 46 47 46 48 46 46 47 51 52 49 48 54 53 55 58 61 61 62 64 63
53 53 53 53 53 53 53 53 53 53 53 53 52 52 52 52 50 39 40 41 41 42 38 35 45 48 52 55 52 49 48 45 46 46 44 44 47 48 44 43 52 52 54 54 54 56 56 58 61 62 62 62 64 63
53 53 53 53 53 53 53 53 53 53 52 52 52 51 51 51 40 38 41 44 45 41 39 36 39 48 50 49 49 49 46 44 46 43 43 43 46 46 43 43 53 54 57 58 58 58 57 59 57 61 63 65 64 66
52 52 52 53 53 53 53 52 52 52 52 52 51 51 51 51 46 39 43 48 46 39 40 35 38 43 48 45 46 44 45 43 44 44 43 44 44 42 41 48 52 55 58 59 60 59 59 60 60 61 63 63 62 62
52 52 52 52 52 52 52 52 52 51 51 51 51 51 42 40 38 43 55 51 43 43 38 37 35 37 47 43 44 45 43 42 43 43 43 46 40 40 44 45 49 54 55 57 57 59 59 59 59 60 61 61 60 60
52 52 52 52 52 52 52 52 52 51 50 50 42 39 38 41 54 53 44 41 41 40 38 35 38 38 43 42 42 41 41 40 39 43 44 42 41 43 46 46 47 49 52 56 55 54 55 55 57 58 59 60 60 59
52 52 52 52 52 52 52 52 51 50 47 38 36 37 45 51 44 40 37 36 37 36 37 37 38 39 45 42 40 41 39 40 37 42 43 38 39 44 48 49 50 51 53 53 54 53 54 54 55 56 57 58 58 59
51 51 51 52 52 52 52 51 51 42 38 41 40 42 40 41 38 35 34 37 36 37 41 40 41 41 44 45 42 41 40 41 37 44 42 37 44 46 48 49 50 50 53 54 55 55 56 57 56 56 56 57 56 56
52 51 51 51 52 52 52 51 50 49 45 40 39 37 39 37 36 35 32 34 34 41 43 43 42 44 45 46 43 42 40 39 44 41 40 42 48 48 48 49 51 52 53 53 54 55 55 55 57 56 55 57 57 56
49 50 51 51 51 51 51 51 51 48 40 41 37 30 33 32 34 35 36 37 42 42 44 44 43 42 44 44 44 43 43 43 39 38 40 46 49 51 49 50 49 49 50 50 51 52 52 52 53 54 55 55 55 55
48 49 50 51 52 51 51 51 51 43 42 39 42 34 34 40 39 39 40 40 43 45 45 45 44 43 42 44 43 44 41 39 39 39 43 46 48 47 46 47 47 47 47 48 49 49 50 51 51 51 53 53 53 53
48 50 49 51 51 51 51 50 46 43 43 38 38 35 42 37 38 39 40 40 44 45 46 45 42 42 41 41 41 41 41 36 39 42 44 45 45 45 45 46 46 47 49 50 50 50 49 48 49 50 51 52 52 53
50 46 51 51 51 50 50 44 43 41 41 39 37 40 38 38 38 39 41 42 44 44 42 43 41 39 42 39 39 40 39 41 42 44 44 44 44 44 45 45 48 52 52 53 51 52 51 51 52 52 52 52 51 52
46 49 51 50 47 47 44 43 41 41 38 39 39 43 45 44 44 42 43 44 43 43 43 43 42 39 37 39 38 41 42 43 43 43 43 44 45 45 47 49 52 53 53 53 52 52 53 53 52 52 51 52 51 55
49 50 51 51 48 43 40 40 42 37 39 40 43 40 42 47 45 45 43 43 42 43 43 41 40 37 39 39 40 41 42 42 42 43 43 45 45 47 51 52 53 53 53 53 53 53 53 53 53 53 53 54 52 52
51 51 52 52 50 42 42 41 43 39 38 41 41 43 44 45 46 45 40 39 40 41 41 39 39 40 40 42 43 43 43 43 45 45 43 46 49 51 51 51 51 52 52 52 52 49 52 52 52 52 52 52 51 51
48 48 51 47 44 42 40 39 38 38 39 39 42 41 42 41 38 38 37 38 40 36 38 40 41 42 43 44 45 45 46 46 47 47 47 47 50 50 51 51 51 52 51 51 51 50 50 50 51 52 52 52 52 51
43 51 44 47 42 44 39 40 39 40 42 43 44 46 43 41 39 36 37 37 37 39 39 40 42 42 43 44 44 46 48 49 49 49 47 48 48 50 49 50 51 51 50 51 51 50 50 51 52 53 52 51 51 52
49 47 45 45 39 36 38 43 41 43 39 42 44 42 39 39 39 37 35 35 37 39 41 41 42 44 45 47 49 49 50 49 50 50 50 50 51 50 50 51 52 51 50 50 50 50 50 47 49 51 51 52 52 51
49 41 38 37 38 37 44 43 43 40 39 38 37 34 34 35 37 35 33 35 38 41 43 45 47 47 48 48 48 48 49 51 50 49 48 50 49 49 50 51 51 51 50 51 51 51 50 51 49 52 53 53 53 52
35 35 35 30 39 39 39 39 34 34 33 34 34 33 34 37 36 35 35 40 42 44 46 47 47 47 47 47 48 49 51 51 48 47 48 49 49 48 47 47 47 48 49 51 50 50 50 51 52 53 52 53 52 51
26 36 33 35 33 35 34 33 32 33 34 33 34 37 40 38 36 34 39 42 44 45 47 47 47 47 48 48 48 49 50 51 50 48 49 49 48 48 48 49 49 51 52 53 53 54 54 54 54 55 54 54 47 54
31 33 37 41 37 36 37 38 38 35 35 36 39 39 39 35 35 39 44 45 46 48 50 50 49 49 49 50 51 52 52 52 52 51 51 52 52 52 52 52 52 54 56 55 55 55 54 54 54 54 55 55 55 56
37 37 36 39 36 37 37 38 38 37 40 43 43 40 39 39 40 44 46 48 50 51 51 52 52 52 51 51 52 52 53 53 52 52 51 52 52 53 54 55 53 44 50 53 55 55 56 58 57 57 56 56 55 56
37 40 39 38 40 39 40 40 42 45 48 46 43 43 44 46 48 48 48 50 52 52 50 50 51 54 54 53 52 52 51 51 53 52 51 50 50 54 52 53 54 54 53 55 46 47 55 56 57 59 58 56 55 55
41 43 40 41 40 40 44 46 45 49 49 48 48 48 47 48 50 51 50 51 50 50 52 53 53 53 52 52 52 53 52 52 53 55 53 52 53 55 55 56 56 56 55 56 57 57 48 56 53 58 57 56 55 55
45 43 42 43 43 46 48 50 51 52 52 50 50 49 48 50 52 52 53 53 53 52 52 52 53 54 52 52 51 52 53 53 52 53 56 56 56 56 55 55 55 55 55 56 58 59 59 58 58 58 58 56 54 52
43 42 42 43 44 50 52 50 49 50 51 50 48 51 51 50 49 53 56 55 52 53 52 52 51 52 54 54 53 53 48 55 54 53 54 54 56 56 57 57 56 56 57 57 57 58 58 57 56 56 56 55 54 54
46 47 47 47 46 46 49 49 47 47 48 48 49 50 50 49 48 53 54 56 56 57 55 54 54 55 54 54 53 52 49 51 45 41 44 44 45 49 55 56 57 58 58 57 57 57 57 57 56 55 55 55 55 55
MSLP
1021.55 1022.02 1022.60 1022.77 1022.93 1023.12 1023.33 1023.44 1023.44 1023.46 1023.36 1023.19 1023.00 1022.67 1022.19 1021.87 1021.48 1021.68 1021.76 1021.49 1021.55 1021.55 1019.61 1018.26 1017.40 1016.79 1016.38 1016.37 1016.20 1015.27 1014.65 1014.23 1013.59 1013.77 1014.08 1013.95 1013.48 1013.05 1012.67 1012.42 1012.32 1012.77 1013.54 1014.27 1014.00 1013.60 1012.51 1011.55 1010.50 1010.49 1010.61 1009.92 1009.77 1010.04
1020.95 1021.58 1022.16 1022.35 1022.53 1022.77 1022.98 1023.11 1023.18 1023.23 1023.28 1023.11 1022.96 1022.69 1022.39 1022.10 1021.80 1021.68 1022.02 1021.80 1021.74 1021.82 1019.92 1018.45 1017.23 1016.67 1016.29 1016.02 1016.31 1015.97 1016.01 1015.66 1015.29 1014.98 1015.13 1015.06 1014.78 1014.29 1014.36 1013.93 1013.39 1013.83 1013.89 1013.88 1013.85 1013.11 1012.56 1012.14 1011.99 1011.34 1010.95 1010.66 1010.54 1010.63
1020.72 1021.27 1021.62 1021.93 1022.23 1022.45 1022.66 1022.78 1022.95 1023.03 1023.11 1023.01 1022.92 1022.70 1022.53 1022.24 1022.13 1022.01 1022.49 1022.44 1021.97 1021.90 1019.96 1018.54 1016.62 1015.95 1015.65 1015.74 1015.74 1016.14 1015.88 1015.66 1015.52 1015.52 1015.75 1015.93 1015.66 1015.38 1015.35 1014.88 1014.33 1013.96 1013.84 1014.01 1013.90 1013.17 1012.69 1012.71 1012.47 1011.92 1011.37 1010.85 1010.80 1010.88
1020.29 1020.86 1021.18 1021.53 1021.79 1022.08 1022.33 1022.47 1022.71 1022.87 1022.90 1022.89 1022.78 1022.71 1022.52 1022.30 1022.18 1021.96 1022.57 1022.50 1022.35 1022.33 1021.46 1018.10 1016.27 1015.82 1015.23 1015.26 1015.45 1015.55 1015.72 1015.83 1015.84 1015.94 1016.06 1016.20 1016.22 1015.90 1015.85 1015.47 1015.17 1014.50 1014.18 1014.22 1013.95 1013.38 1013.31 1013.04 1012.96 1012.37 1011.74 1011.44 1011.30 1011.35
1019.74 1020.32 1020.70 1021.06 1021.38 1021.73 1021.95 1022.17 1022.41 1022.65 1022.73 1022.69 1022.65 1022.66 1022.43 1022.27 1021.96 1021.82 1022.11 1022.09 1022.02 1022.27 1021.74 1019.35 1017.20 1015.90 1015.19 1015.02 1015.29 1015.56 1015.92 1016.25 1016.58 1016.77 1016.97 1016.86 1016.40 1016.33 1016.16 1015.90 1015.26 1014.47 1014.13 1014.16 1013.83 1013.49 1013.68 1013.45 1012.96 1012.57 1012.31 1012.06 1011.99 1012.03
1019.25 1019.71 1020.22 1020.61 1020.99 1021.31 1021.61 1021.82 1022.12 1022.42 1022.52 1022.49 1022.51 1022.48 1022.31 1022.17 1021.90 1021.94 1022.18 1021.96 1021.81 1021.80 1021.71 1020.48 1017.94 1016.69 1015.69 1015.21 1015.58 1015.79 1016.23 1016.70 1017.03 1017.33 1017.45 1017.03 1016.36 1016.23 1016.44 1016.26 1014.83 1014.48 1013.94 1013.72 1013.52 1013.47 1013.50 1013.23 1013.05 1012.75 1012.43 1012.41 1012.41 1012.59
1018.92 1019.35 1019.80 1020.14 1020.55 1020.94 1021.23 1021.52 1021.91 1022.20 1022.31 1022.29 1022.32 1022.25 1022.13 1022.04 1022.42 1022.20 1021.89 1021.62 1021.62 1021.67 1021.61 1020.82 1018.93 1016.97 1016.23 1015.95 1016.27 1016.51 1016.65 1017.04 1017.24 1017.58 1017.62 1017.46 1016.93 1016.57 1016.69 1016.20 1014.70 1014.28 1013.79 1013.41 1013.22 1013.51 1013.63 1013.45 1013.27 1012.97 1012.45 1012.37 1012.43 1012.47
1018.55 1019.03 1019.44 1019.83 1020.28 1020.59 1020.94 1021.33 1021.70 1021.97 1022.09 1022.10 1022.05 1021.94 1021.74 1021.61 1021.64 1021.58 1020.65 1020.23 1021.40 1021.91 1021.73 1021.40 1019.59 1018.00 1016.80 1016.80 1017.14 1017.15 1017.29 1017.35 1017.48 1017.63 1017.70 1017.56 1017.41 1017.30 1017.04 1015.76 1014.72 1014.21 1013.87 1013.56 1013.27 1013.32 1013.20 1013.10 1013.31 1013.23 1013.02 1012.83 1012.72 1012.66
1018.29 1018.70 1019.11 1019.59 1019.99 1020.34 1020.74 1021.16 1021.51 1021.76 1021.90 1021.93 1021.78 1021.60 1021.76 1021.75 1021.56 1020.87 1020.16 1020.47 1020.87 1021.38 1021.47 1021.33 1020.44 1018.71 1017.27 1017.43 1017.52 1017.52 1017.50 1017.85 1017.81 1017.66 1017.49 1017.43 1017.78 1017.64 1016.92 1016.34 1015.56 1014.67 1014.16 1013.60 1013.61 1013.64 1013.56 1013.52 1013.40 1013.25 1013.15 1013.06 1013.07 1013.16
1017.85 1018.30 1018.80 1019.29 1019.77 1020.17 1020.60 1021.03 1021.37 1021.64 1021.76 1021.80 1021.89 1021.84 1021.62 1021.12 1020.58 1020.54 1020.89 1020.88 1020.93 1021.17 1021.18 1020.84 1019.79 1018.94 1018.12 1017.94 1018.02 1018.25 1017.90 1018.08 1017.92 1017.39 1017.17 1017.22 1017.49 1017.34 1016.90 1016.41 1015.76 1014.91 1014.21 1013.97 1014.11 1014.27 1014.16 1014.06 1014.00 1013.78 1013.61 1013.48 1013.44 1013.42
1017.37 1017.89 1018.39 1018.94 1019.48 1019.98 1020.45 1020.88 1021.28 1021.64 1021.85 1022.08 1022.19 1022.04 1021.19 1020.69 1020.67 1020.93 1021.11 1021.11 1020.97 1020.90 1020.37 1019.61 1019.21 1018.61 1017.78 1017.86 1018.06 1018.09 1018.06 1018.08 1017.85 1017.32 1017.20 1017.49 1017.66 1017.46 1017.05 1016.56 1015.90 1015.25 1014.81 1014.70 1014.54 1014.62 1014.56 1014.51 1014.51 1014.34 1014.06 1013.82 1013.75 1013.62
1016.63 1017.22 1017.93 1018.58 1019.18 1019.74 1020.31 1020.79 1021.24 1021.79 1022.03 1022.00 1022.13 1021.91 1021.66 1021.21 1021.27 1021.31 1020.98 1020.80 1020.55 1019.71 1018.89 1018.57 1018.11 1017.95 1017.55 1017.35 1017.64 1017.88 1017.76 1017.81 1017.45 1017.05 1017.12 1017.41 1017.59 1017.43 1017.34 1017.03 1016.63 1016.22 1015.72 1015.55 1015.47 1015.45 1015.31 1015.20 1015.10 1014.94 1014.67 1014.39 1014.23 1014.02
1015.94 1016.64 1017.41 1018.15 1018.87 1019.52 1020.17 1020.70 1021.12 1021.45 1021.69 1021.97 1022.06 1021.88 1021.59 1021.55 1021.45 1021.20 1020.63 1020.09 1019.56 1018.46 1017.98 1017.75 1017.71 1017.31 1017.36 1017.26 1017.69 1017.68 1017.48 1017.42 1016.83 1017.01 1017.13 1017.35 1017.35 1017.44 1017.48 1017.33 1017.01 1016.74 1016.62 1016.48 1016.25 1015.98 1015.75 1015.49 1015.21 1015.10 1014.97 1014.82 1014.64 1014.29
1015.97 1016.46 1017.17 1017.67 1018.64 1019.44 1020.10 1020.61 1021.06 1021.45 1021.94 1021.89 1021.70 1021.74 1021.55 1021.08 1020.55 1019.84 1019.49 1018.91 1018.15 1017.82 1017.58 1017.48 1017.44 1017.19 1017.15 1017.15 1017.16 1017.40 1016.96 1016.91 1016.99 1017.14 1017.21 1017.24 1017.29 1017.52 1017.58 1017.58 1017.38 1017.05 1016.84 1016.68 1016.56 1016.37 1016.15 1015.92 1015.55 1015.19 1015.02 1014.95 1014.87 1014.60
1016.19 1016.53 1017.11 1017.95 1018.72 1019.50 1020.13 1020.64 1021.04 1021.56 1021.66 1021.58 1021.26 1021.12 1020.63 1019.75 1019.29 1018.86 1018.64 1018.47 1017.69 1017.31 1017.24 1017.11 1017.32 1017.03 1016.90 1016.79 1016.99 1016.90 1016.93 1017.07 1017.33 1017.36 1017.46 1017.47 1017.63 1017.85 1017.97 1017.93 1017.74 1017.54 1017.27 1016.94 1016.61 1016.39 1016.13 1015.94 1015.75 1015.36 1014.99 1014.80 1014.73 1014.60
1016.41 1016.79 1017.26 1018.16 1018.96 1019.73 1020.28 1020.82 1021.29 1021.53 1021.43 1021.31 1020.98 1020.49 1019.54 1019.54 1019.03 1018.64 1018.29 1017.99 1017.34 1017.13 1017.02 1016.98 1016.88 1016.87 1016.90 1016.84 1016.98 1016.98 1017.14 1017.43 1017.55 1017.54 1017.58 1017.74 1017.91 1017.97 1017.93 1017.73 1017.47 1017.17 1016.79 1016.43 1016.16 1015.96 1015.74 1015.57 1015.39 1015.07 1014.77 1014.55 1014.34 1014.26
1016.58 1016.94 1017.49 1018.50 1019.39 1020.04 1020.52 1020.98 1021.28 1021.28 1021.01 1020.73 1020.12 1019.48 1019.30 1019.11 1018.96 1018.40 1018.07 1017.70 1017.34 1017.23 1017.04 1016.88 1017.06 1017.12 1017.07 1017.26 1017.37 1017.39 1017.48 1017.58 1017.64 1017.78 1017.85 1017.89 1017.89 1017.76 1017.54 1017.25 1016.91 1016.49 1016.04 1015.76 1015.55 1015.34 1015.11 1014.84 1014.66 1014.62 1014.42 1014.15 1014.17 1013.99
1016.86 1017.65 1018.30 1019.05 1019.77 1020.46 1020.85 1020.93 1021.10 1020.93 1020.65 1019.96 1019.62 1018.77 1018.52 1018.33 1018.20 1018.00 1017.79 1017.55 1017.66 1017.31 1017.20 1016.95 1016.89 1017.24 1017.56 1017.67 1017.73 1017.69 1017.76 1017.78 1017.82 1017.90 1017.94 1017.88 1017.69 1017.49 1017.31 1016.96 1016.47 1016.10 1015.62 1015.42 1015.21 1014.97 1014.68 1014.33 1014.21 1014.22 1014.25 1014.11 1014.06 1013.76
1017.59 1018.24 1018.83 1019.30 1019.76 1020.15 1020.61 1020.90 1020.80 1020.43 1019.75 1019.40 1018.90 1018.65 1018.30 1018.02 1017.95 1017.93 1017.94 1017.65 1017.43 1017.08 1017.02 1017.29 1017.66 1018.01 1018.09 1017.97 1017.94 1017.98 1018.01 1018.16 1018.22 1018.16 1018.00 1017.62 1017.42 1017.23 1016.78 1016.38 1016.10 1015.76 1015.56 1015.38 1015.17 1014.98 1014.83 1014.66 1014.49 1014.34 1014.19 1014.06 1014.05 1013.84
1018.40 1019.00 1019.43 1019.68 1019.79 1020.13 1020.24 1020.23 1020.15 1020.00 1019.48 1018.98 1018.75 1018.61 1018.29 1018.07 1018.04 1018.12 1018.20 1017.94 1017.62 1017.62 1017.91 1018.14 1018.22 1018.16 1018.19 1018.05 1018.00 1018.06 1018.09 1018.15 1018.17 1018.07 1017.89 1017.44 1017.12 1016.83 1016.45 1016.22 1016.05 1015.94 1015.81 1015.60 1015.40 1015.26 1015.09 1014.94 1014.80 1014.63 1014.47 1014.39 1014.26 1014.17
1019.47 1019.94 1019.96 1020.10 1020.20 1020.29 1020.26 1019.98 1019.81 1019.44 1019.04 1018.81 1018.38 1018.33 1018.34 1018.37 1018.63 1018.78 1018.82 1018.54 1018.37 1018.69 1018.68 1018.48 1018.33 1018.15 1018.06 1017.96 1017.90 1017.92 1017.90 1017.97 1017.90 1017.80 1017.48 1017.09 1016.74 1016.57 1016.39 1016.25 1016.02 1016.05 1015.95 1015.82 1015.73 1015.60 1015.41 1015.26 1015.14 1015.01 1014.85 1014.70 1014.67 1014.59
1019.86 1020.10 1020.41 1020.39 1020.43 1020.21 1020.16 1019.51 1019.42 1019.02 1018.99 1018.43 1018.06 1018.02 1018.52 1018.91 1019.33 1019.51 1019.51 1019.26 1019.16 1018.86 1018.69 1018.52 1018.37 1018.29 1018.12 1017.98 1017.80 1017.73 1017.60 1017.50 1017.30 1017.03 1016.81 1016.77 1016.72 1016.59 1016.49 1016.40 1016.20 1016.22 1016.07 1016.02 1015.98 1015.88 1015.84 1015.74 1015.56 1015.44 1015.26 1015.22 1015.15 1015.09
1019.88 1020.19 1020.25 1020.29 1020.40 1019.95 1019.52 1018.88 1018.99 1018.79 1018.75 1018.57 1018.32 1018.62 1019.11 1019.40 1019.59 1019.65 1019.70 1019.48 1019.10 1018.54 1018.32 1018.24 1018.01 1017.85 1017.74 1017.53 1017.41 1017.33 1017.13 1017.01 1016.79 1016.73 1016.66 1016.60 1016.65 1016.63 1016.60 1016.50 1016.43 1016.48 1016.58 1016.65 1016.43 1016.33 1016.27 1016.18 1016.08 1016.04 1015.91 1015.91 1015.77 1015.76
1019.68 1020.00 1019.99 1019.91 1019.95 1019.57 1018.97 1018.88 1018.87 1019.02 1018.97 1018.95 1018.95 1019.24 1019.52 1019.72 1019.73 1019.74 1019.74 1019.26 1018.48 1018.12 1017.97 1017.75 1017.65 1017.56 1017.38 1017.27 1017.24 1017.08 1016.93 1016.77 1016.75 1016.72 1016.68 1016.67 1016.78 1016.94 1016.85 1016.82 1016.85 1016.90 1016.94 1016.95 1016.86 1016.80 1016.71 1016.63 1016.48 1016.38 1016.38 1016.32 1016.34 1016.30
1020.29 1020.23 1020.01 1019.81 1019.57 1019.46 1019.21 1019.25 1019.38 1019.32 1019.46 1019.40 1019.30 1019.33 1019.47 1019.61 1019.67 1019.63 1019.14 1018.35 1017.93 1017.64 1017.42 1017.25 1017.26 1017.26 1017.25 1017.17 1017.11 1017.01 1016.92 1016.89 1016.93 1016.98 1016.98 1016.87 1017.06 1017.18 1017.29 1017.28 1017.21 1017.16 1017.16 1017.02 1017.22 1017.16 1017.17 1017.02 1016.92 1016.80 1016.72 1016.65 1016.64 1016.68
1020.20 1020.14 1020.15 1019.89 1019.85 1019.71 1019.74 1019.73 1019.74 1019.65 1019.54 1019.34 1019.16 1019.05 1019.08 1019.17 1019.13 1018.82 1018.22 1017.57 1017.37 1017.22 1017.07 1017.00 1016.85 1016.87 1016.94 1016.95 1016.95 1017.02 1016.97 1016.83 1016.82 1016.91 1017.03 1016.95 1017.06 1017.08 1017.24 1017.32 1017.32 1017.19 1016.97 1016.92 1016.97 1017.04 1016.99 1016.91 1016.96 1016.93 1016.92 1016.87 1016.82 1016.78
1020.32 1020.21 1019.96 1019.83 1019.92 1019.83 1019.70 1019.63 1019.52 1019.42 1019.08 1018.73 1018.49 1018.57 1018.58 1018.44 1018.03 1017.63 1017.17 1017.01 1016.96 1016.83 1016.75 1016.64 1016.65 1016.64 1016.66 1016.76 1016.78 1016.82 1016.73 1016.64 1016.65 1016.76 1016.76 1016.74 1016.73 1016.79 1016.85 1016.93 1017.02 1016.87 1016.69 1016.70 1016.83 1016.81 1016.77 1016.67 1016.60 1016.67 1016.69 1016.69 1016.77 1016.73
1020.08 1020.04 1019.85 1019.75 1019.70 1019.71 1019.47 1019.09 1018.79 1018.46 1018.04 1017.78 1017.76 1017.51 1017.31 1017.06 1016.89 1016.70 1016.60 1016.62 1016.63 1016.66 1016.66 1016.48 1016.50 1016.51 1016.55 1016.56 1016.64 1016.64 1016.64 1016.54 1016.52 1016.50 1016.63 1016.64 1016.57 1016.48 1016.41 1016.38 1016.50 1016.47 1016.33 1016.33 1016.38 1016.32 1016.11 1015.98 1016.00 1016.13 1016.30 1016.33 1016.36 1016.42
1019.82 1019.58 1019.61 1019.32 1019.11 1018.98 1018.60 1018.19 1017.57 1017.09 1016.73 1016.77 1016.72 1016.21 1016.23 1016.18 1016.26 1016.30 1016.45 1016.42 1016.48 1016.58 1016.66 1016.63 1016.69 1016.58 1016.40 1016.21 1016.14 1016.15 1016.18 1016.25 1016.35 1016.39 1016.50 1016.63 1016.63 1016.45 1016.30 1016.27 1016.28 1016.25 1016.24 1016.23 1016.20 1016.04 1015.76 1015.73 1015.92 1016.05 1016.17 1016.29 1016.37 1016.46
1018.99 1018.97 1018.81 1018.35 1018.00 1017.51 1017.02 1016.78 1016.44 1016.01 1015.87 1015.87 1015.92 1015.89 1015.95 1016.02 1016.00 1016.08 1016.11 1016.16 1016.38 1016.41 1016.41 1016.40 1016.41 1016.38 1016.31 1016.30 1016.26 1016.07 1015.81 1015.86 1015.98 1016.09 1016.22 1016.20 1016.11 1015.96 1016.02 1016.02 1016.12 1016.24 1016.35 1016.37 1016.27 1016.21 1016.08 1015.98 1016.08 1016.15 1016.26 1016.37 1016.49 1016.57
1018.20 1018.32 1018.09 1017.58 1016.99 1016.42 1015.93 1015.72 1015.55 1015.31 1015.28 1015.47 1015.33 1015.36 1015.52 1015.60 1015.60 1015.60 1015.83 1015.81 1015.94 1016.12 1016.19 1016.11 1016.01 1015.96 1016.05 1016.03 1016.02 1015.90 1015.68 1015.44 1015.51 1015.59 1015.55 1015.56 1015.65 1015.66 1015.73 1015.81 1015.86 1015.95 1016.11 1016.25 1016.24 1016.22 1016.25 1016.21 1016.18 1016.25 1016.37 1016.58 1016.76 1016.87
1017.65 1017.47 1017.19 1016.71 1016.35 1015.82 1015.66 1015.46 1015.31 1015.23 1015.27 1015.23 1015.38 1015.28 1015.37 1015.49 1015.67 1015.43 1014.92 1015.21 1015.63 1015.72 1015.62 1015.75 1015.78 1015.51 1015.38 1015.38 1015.36 1015.37 1015.25 1015.25 1015.11 1015.17 1015.16 1015.32 1015.44 1015.47 1015.50 1015.54 1015.58 1015.71 1015.90 1015.96 1016.00 1016.02 1016.09 1016.13 1016.27 1016.38 1016.53 1016.70 1016.84 1016.97
1016.35 1016.23 1016.01 1015.76 1015.61 1015.51 1015.38 1015.40 1015.47 1015.55 1015.37 1015.47 1015.40 1015.41 1015.45 1015.47 1015.24 1014.69 1014.38 1014.33 1014.51 1014.59 1014.72 1014.88 1015.13 1015.13 1015.03 1014.98 1014.95 1014.99 1015.17 1015.40 1015.37 1015.35 1015.35 1015.41 1015.43 1015.54 1015.58 1015.65 1015.77 1015.86 1015.96 1016.13 1016.29 1016.34 1016.39 1016.42 1016.53 1016.64 1016.78 1016.92 1017.02 1017.09
Wind_Speed
17 15 15 12 10 8 7 6 5 6 8 10 12 14 15 16 18 6 2 3 3 1 7 4 3 2 3 2 2 5 3 3 5 5 3 1 2 1 3 3 3 3 5 3 3 3 6 6 4 2 5 4 4 1
18 16 14 12 10 9 8 7 5 5 6 8 11 13 14 14 16 8 2 2 1 3 7 3 7 9 8 9 2 2 2 2 1 2 2 2 2 3 1 1 3 2 5 4 6 6 3 3 4 5 2 2 3 6
16 15 13 12 10 9 8 8 7 6 6 7 10 11 12 13 13 8 1 3 2 3 6 4 3 1 1 7 4 2 2 3 2 1 3 2 5 3 2 2 2 3 1 2 2 3 4 6 7 5 4 2 2 4
16 15 13 12 10 9 9 8 8 6 5 6 8 10 11 12 12 9 1 1 3 2 1 8 4 4 2 4 5 4 2 2 2 2 2 2 2 2 3 2 2 4 2 2 3 5 4 4 3 6 6 6 8 8
17 15 13 12 11 10 10 9 8 7 6 6 7 9 11 12 13 4 2 2 2 3 2 6 10 4 7 4 6 4 3 2 2 2 2 1 1 2 1 2 2 2 4 2 4 4 2 3 5 6 6 5 6 10
16 15 13 12 11 11 10 9 8 7 5 5 7 8 10 11 12 3 2 1 2 3 2 4 4 5 5 3 3 3 2 3 3 3 2 3 3 3 3 2 5 4 3 5 3 4 4 3 1 3 3 5 5 6
14 14 13 12 10 10 9 9 8 6 5 5 7 8 10 10 2 2 4 2 4 2 2 5 6 4 4 3 2 2 3 2 3 1 0 1 2 4 3 3 5 4 5 4 4 5 3 3 3 4 1 3 2 2
14 13 11 11 11 10 9 9 7 6 4 6 8 9 12 12 4 5 4 10 6 1 2 1 6 5 4 1 0 2 1 3 3 2 1 2 2 2 2 8 6 3 5 5 6 4 2 6 5 3 1 2 3 3
14 13 12 11 11 10 10 9 8 6 3 6 9 11 3 2 1 3 3 14 1 3 1 1 2 4 4 2 1 2 2 1 1 1 2 3 1 3 5 4 6 4 6 5 2 4 4 4 4 3 2 4 3 4
16 15 14 13 11 11 11 9 8 5 2 5 4 3 2 3 9 3 2 2 3 2 2 3 1 4 2 1 1 1 2 1 0 4 2 2 2 3 4 5 6 8 9 6 6 4 2 2 2 1 2 2 2 3
18 17 16 15 13 13 11 9 8 6 5 3 2 1 2 8 3 2 1 1 1 2 3 4 5 2 1 2 3 1 2 0 1 4 3 1 1 2 6 6 7 7 7 7 7 5 6 4 1 3 3 2 4 5
20 21 19 17 15 15 13 11 10 4 3 4 2 2 3 3 3 1 2 2 3 5 3 4 5 5 2 2 3 1 2 2 4 0 2 1 2 3 3 4 6 7 8 8 7 6 5 3 1 2 3 5 5 6
20 20 19 19 17 17 15 13 11 6 3 2 1 1 3 2 2 4 4 3 3 3 2 2 2 3 2 2 3 1 2 4 1 1 1 2 3 2 3 4 5 5 6 5 5 5 6 6 6 2 4 4 6 7
8 12 17 19 18 17 15 12 10 5 3 1 3 1 4 3 5 5 5 4 5 2 2 2 1 2 2 3 3 2 3 1 0 2 2 3 3 0 3 4 5 8 8 7 6 5 6 7 8 8 6 4 5 6
6 4 18 18 19 18 14 12 10 2 1 1 2 3 5 5 4 4 4 2 4 2 1 3 1 2 1 4 2 0 1 1 0 2 2 1 2 1 4 4 5 6 6 6 6 6 7 7 7 9 8 7 5 5
9 13 6 20 20 16 14 10 2 1 1 1 2 3 3 1 4 2 2 4 2 1 2 1 1 3 1 2 2 1 0 2 2 2 2 1 2 3 4 4 5 6 7 7 7 7 7 6 7 7 6 7 6 5
11 1 23 22 18 16 10 3 1 3 2 2 4 3 3 4 5 3 2 3 1 1 2 2 2 2 2 2 2 1 3 3 2 1 1 2 3 5 6 6 6 7 8 7 6 5 7 6 6 6 7 4 4 4
4 15 23 21 10 5 1 1 1 2 4 4 2 4 2 3 2 3 2 1 1 2 2 2 4 2 2 2 2 2 1 1 2 1 3 4 4 5 4 7 7 6 6 4 4 5 4 4 2 1 1 2 3 4
12 13 20 16 5 4 4 3 2 3 5 2 3 2 3 2 2 2 2 3 2 2 4 3 4 2 2 2 2 1 1 0 1 3 3 5 5 5 6 5 3 4 4 4 4 2 3 3 2 2 1 2 2 3
18 17 13 8 2 1 2 2 1 2 2 2 1 1 2 2 2 2 3 3 2 2 4 2 2 2 3 2 3 2 2 1 2 3 3 3 3 4 3 3 3 3 3 4 3 5 3 2 3 3 2 3 2 2
8 2 2 4 2 1 1 1 2 4 2 1 1 2 1 2 3 4 4 4 4 2 1 2 2 2 2 2 2 1 2 2 3 3 3 3 3 3 2 2 2 2 2 2 3 3 4 3 2 3 4 4 4 4
3 7 2 0 1 0 2 3 3 2 1 2 2 2 3 2 2 3 3 3 1 2 3 2 1 1 1 3 3 3 4 4 4 4 5 3 2 1 2 2 2 2 3 3 3 3 3 3 3 5 5 5 5 4
8 3 2 3 2 0 4 2 1 0 1 2 2 2 2 2 2 2 2 2 3 3 2 2 3 3 3 4 3 3 3 3 3 3 2 1 1 3 2 2 2 3 3 4 3 4 4 4 5 4 4 5 5 5
3 2 3 3 4 1 1 1 2 2 2 2 2 1 1 2 3 3 2 3 3 2 2 2 2 2 2 2 2 2 2 2 2 2 2 3 3 3 3 3 3 3 3 2 3 3 3 3 4 4 4 4 4 3
3 3 3 4 1 1 1 2 3 3 1 1 0 2 2 0 1 2 2 3 2 2 2 2 2 2 2 1 1 1 2 2 2 2 2 2 3 2 3 3 3 2 1 4 3 4 3 3 3 4 4 5 6 6
2 3 2 2 2 2 1 2 1 0 0 1 2 1 1 0 1 4 3 2 2 2 1 2 2 2 2 2 2 1 1 1 1 3 2 2 3 4 4 4 2 2 2 2 2 2 1 1 2 0 1 2 3 3
2 2 2 1 2 2 1 2 1 1 2 4 2 2 2 3 4 3 2 2 2 1 0 1 2 1 3 2 1 1 1 1 3 3 2 2 3 4 3 3 3 3 1 3 3 4 4 5 5 5 4 3 3 3
3 2 3 1 1 2 2 2 3 3 3 3 2 5 3 4 3 2 2 1 1 2 2 1 2 2 2 2 2 1 3 1 1 1 1 0 1 3 3 3 2 4 3 3 3 4 5 5 3 3 4 5 4 4
1 2 2 3 3 3 4 3 3 3 3 3 3 2 2 0 0 1 1 2 2 3 3 3 2 2 2 3 2 2 2 1 1 1 1 1 3 2 3 2 1 2 2 2 6 6 3 2 3 1 2 2 2 2
2 3 2 3 3 3 3 5 3 2 2 3 1 1 1 0 1 2 2 3 3 3 3 2 2 1 1 1 3 4 2 4 4 4 4 4 4 2 3 3 2 1 1 2 2 3 3 3 2 2 1 1 1 1
4 3 2 2 2 3 3 3 3 2 2 1 1 2 2 2 1 2 3 3 3 3 1 2 3 2 2 2 2 3 4 2 5 7 7 3 3 3 3 4 3 3 3 3 3 2 2 1 1 1 1 1 1 1
3 5 3 2 3 3 1 3 3 3 2 3 4 3 3 4 2 3 2 4 3 3 5 3 4 5 2 3 3 4 6 4 2 3 6 5 5 4 3 3 2 3 3 3 3 3 3 4 3 3 3 3 3 3
2 2 3 2 1 1 3 2 2 1 3 2 1 1 1 2 4 4 1 4 6 7 6 4 3 3 5 4 3 2 4 3 6 8 8 5 5 5 3 2 3 3 5 4 3 2 3 4 2 2 2 1 1 2
Wind_Direction
197 199 210 215 226 240 256 270 305 332 343 352 356 3 8 8 10 36 283 353 88 184 277 223 267 314 354 54 38 302 348 349 358 61 103 221 104 290 46 0 45 108 119 188 103 97 258 6 325 194 227 309 290 90
193 199 208 213 223 233 243 252 275 304 326 342 348 357 3 4 7 32 16 329 63 161 247 278 251 258 228 223 191 327 191 251 258 73 49 103 51 41 138 181 354 59 173 193 173 216 274 302 275 302 255 307 4 119
193 199 202 209 220 231 244 252 255 281 308 335 341 351 355 359 360 23 284 299 27 23 303 349 286 228 244 199 175 134 295 253 354 162 152 158 83 109 79 290 339 336 137 115 66 281 326 326 311 328 326 71 125 127
192 198 201 209 216 227 235 245 249 266 291 322 336 342 347 349 345 356 322 222 92 113 28 282 330 311 278 172 180 183 198 33 81 46 71 95 118 153 194 199 170 215 11 177 269 286 339 274 320 321 10 72 66 60
191 194 200 209 216 227 237 236 231 250 273 307 326 333 340 339 335 342 198 227 203 120 236 281 307 276 299 194 193 109 119 101 56 15 43 233 216 109 19 90 266 196 184 158 236 230 135 284 331 344 29 52 98 99
189 191 199 206 218 224 239 222 220 236 260 303 321 327 331 334 346 27 28 325 231 160 83 323 300 303 324 101 97 84 89 90 88 123 242 283 263 106 100 192 257 255 231 199 235 168 195 202 315 347 30 37 57 102
195 197 203 207 212 222 218 211 209 226 252 295 310 314 315 319 51 143 205 200 172 50 61 319 324 290 328 47 37 40 41 86 109 128 240 220 302 71 102 179 251 235 266 255 195 154 129 190 229 261 294 10 2 117
196 195 194 202 206 204 199 194 197 212 249 295 305 306 307 305 308 292 255 243 172 116 75 318 276 339 0 14 10 1 47 33 15 158 53 187 4 47 223 253 286 284 243 272 247 282 177 139 146 167 329 339 11 351
190 190 192 198 199 195 185 185 196 203 254 299 312 315 12 44 28 262 99 125 147 131 185 164 224 254 353 359 311 24 61 49 283 185 245 105 325 214 242 285 290 273 205 215 93 124 98 97 115 103 77 32 34 340
193 191 192 194 193 188 179 183 184 186 285 348 31 32 354 236 300 112 299 14 17 345 59 226 197 259 104 20 320 356 9 133 189 249 102 111 238 266 305 289 273 281 248 164 132 148 127 121 169 197 212 222 242 272
203 197 194 192 185 179 176 177 164 125 58 43 42 233 276 320 69 36 298 141 223 263 197 237 188 226 258 123 204 180 166 138 82 268 140 46 336 306 332 347 351 18 54 58 82 75 66 76 351 322 330 341 310 280
208 199 192 188 178 174 170 163 148 103 176 178 196 287 329 44 44 87 248 297 205 236 214 186 213 200 237 115 105 320 130 62 239 244 84 126 217 264 324 345 1 14 28 40 36 40 25 48 41 275 306 329 332 314
203 193 188 183 173 165 162 162 163 138 83 48 76 18 75 266 178 207 213 246 258 232 249 214 199 164 65 82 75 100 138 234 42 64 152 217 172 245 311 328 337 12 16 11 353 348 337 326 324 316 305 302 317 315
111 176 177 166 161 156 157 162 163 132 82 198 158 223 174 217 240 203 202 207 242 217 272 199 226 156 181 139 113 224 230 103 217 175 185 167 180 221 347 331 344 330 332 324 310 301 301 302 302 305 292 278 283 293
133 209 170 154 149 146 153 153 143 89 135 181 202 221 227 229 254 239 233 277 256 236 209 123 270 180 182 115 200 101 175 121 316 219 210 169 162 266 286 288 293 291 288 286 282 282 282 281 279 285 286 283 280 269
195 152 125 142 137 146 139 122 91 98 210 215 238 273 248 354 296 323 246 260 260 210 175 83 79 55 43 109 139 262 18 197 239 212 220 182 233 248 254 270 276 271 270 268 266 263 260 260 260 264 278 274 272 266
144 48 142 134 138 132 118 98 124 202 251 231 253 222 233 251 237 256 230 253 288 88 210 118 95 166 85 86 148 182 181 206 203 230 237 243 276 297 306 301 291 285 284 275 269 268 269 261 259 264 260 297 304 290
77 128 126 127 114 111 74 101 204 208 240 240 241 280 235 224 280 295 280 272 184 189 168 152 130 82 146 185 230 229 252 260 235 258 278 277 272 289 279 275 285 291 303 300 282 282 293 316 257 254 61 299 349 328
122 131 135 132 127 122 150 199 198 234 235 240 264 284 252 273 210 245 310 295 238 220 107 49 85 152 212 228 183 230 268 239 284 291 277 281 266 280 293 307 338 351 358 358 3 9 12 7 21 26 335 3 11 323
124 124 113 63 88 123 195 222 150 235 271 241 275 236 247 282 341 11 329 5 27 54 46 67 176 207 186 220 198 213 229 223 290 316 304 295 276 306 320 356 356 358 8 3 25 24 8 33 28 13 19 31 21 9
81 155 10 29 10 62 231 253 258 214 272 219 241 177 232 39 25 11 351 339 51 80 148 220 195 212 230 254 242 224 273 226 264 227 257 288 329 322 348 4 4 25 20 5 27 17 22 27 359 12 30 37 44 63
118 146 102 265 316 201 261 226 204 244 242 275 355 40 43 32 11 347 313 22 270 235 200 195 234 218 294 287 272 240 258 271 265 264 265 257 267 36 33 9 32 46 26 28 23 29 21 16 35 40 49 41 39 67
126 155 203 175 251 160 265 114 332 115 43 350 5 60 26 4 328 332 339 246 259 243 217 229 246 228 246 274 264 275 266 278 292 289 280 239 46 44 64 45 47 67 61 36 23 43 46 23 50 58 57 52 55 60
157 172 195 201 175 239 2 335 33 17 49 34 46 98 240 265 335 46 279 261 252 247 219 233 227 279 265 255 272 301 314 304 338 27 33 96 81 46 48 56 51 54 56 81 62 59 46 49 41 53 55 63 60 63
51 315 89 327 224 247 77 50 13 43 53 -0 64 311 286 0 2 265 249 266 239 235 243 245 207 216 246 251 342 303 298 9 35 81 13 95 109 81 55 51 50 44 126 92 71 81 72 61 49 51 42 39 41 45
68 330 80 356 332 69 354 83 92 158 177 294 247 205 144 0 252 244 244 237 229 221 235 212 222 183 171 180 147 197 313 300 122 88 13 147 145 129 129 120 113 281 217 162 118 91 71 177 139 90 357 32 44 74
345 309 317 182 114 55 91 185 200 244 240 212 195 182 195 233 243 242 249 218 211 200 163 182 165 159 134 127 154 223 231 137 125 156 199 171 169 174 165 174 209 250 204 234 213 220 232 244 246 221 234 242 224 219
207 157 212 136 354 166 273 214 215 222 229 214 214 203 221 209 240 234 213 193 183 114 113 132 133 136 152 191 186 186 154 141 254 215 151 0 243 234 246 273 303 310 299 285 286 260 243 241 218 183 201 239 252 219
210 210 157 233 221 207 225 226 232 219 209 175 224 222 244 40 17 165 166 163 140 133 125 136 191 238 269 286 260 225 210 180 99 29 21 311 325 287 201 190 91 45 29 22 47 38 40 144 166 122 79 72 64 79
220 166 219 241 221 233 227 192 234 250 190 197 207 193 136 160 213 138 138 151 129 136 163 175 195 217 312 323 299 302 240 198 198 182 192 227 227 238 205 207 203 224 314 334 331 339 14 79 92 108 114 129 118 115
140 182 252 239 284 316 286 219 245 210 160 127 236 111 111 159 180 200 172 169 161 164 211 278 287 256 255 257 249 301 300 234 219 230 232 245 223 206 209 221 225 214 198 205 241 261 272 279 231 182 130 199 191 156
185 209 209 227 223 237 194 344 8 53 17 12 10 23 24 41 62 285 219 154 160 237 237 225 251 272 227 255 246 237 239 293 335 268 214 193 206 227 230 214 189 171 179 170 160 148 126 124 126 127 139 149 162 170
231 205 223 218 113 215 217 120 86 53 359 19 342 201 215 194 235 247 197 200 195 211 220 221 231 251 263 255 243 135 97 62 47 39 47 74 115 120 117 96 105 105 112 100 90 96 91 89 94 129 151 174 212 244